Charles Town, WV

3:22 PM EDT on September 02, 2015 (GMT -0400)
Tuscawilla Hills | | Change Station
CLOSE
Current Station
Personal Weather Station
Location: Charles Town, WV
Elevation: 572 ft
Nearby Weather Stations

Elev 572 ft 39.29 °N, 77.90 °W | Updated 14 seconds ago

Overcast
Overcast
79.7 °F
Feels Like 84 °F
N
2.0
Wind Variable Wind from SW
Gusts 4.0 mph

Today
High -- | Low -- °F
--% Chance of Precip.
Yesterday
High -- | Low -- °F
Precip. -- in
6:40 AM 7:41 PM
Waning Gibbous, 78% visible
Pressure 29.98 in
Visibility 10.0 miles
Clouds Few 6000 ft
Heat Index 84 °F
Dew Point 73 °F
Humidity 81%
Rainfall 0.00 in
Snow Depth Not available.
UV 7 out of 12
Pollen 9.40 out of 12
Air Quality Not available.
Flu Activity Not available.
METAR KMRB 021853Z 31009KT 10SM FEW060 32/18 A2999 RMK AO2 SLP151 T03170178
Pressure 29.98 in
Visibility 10.0 miles
Clouds Few 6000 ft
Heat Index 84 °F
Dew Point 73 °F
Humidity 81%
Rainfall 0.00 in
Snow Depth Not available.
UV 7 out of 12
Pollen 9.40 out of 12
Air Quality Not available.
Flu Activity Not available.
METAR KMRB 021853Z 31009KT 10SM FEW060 32/18 A2999 RMK AO2 SLP151 T03170178
Nowcast | as of 2:40 PM EDT on September 2, 2015

a strong thunderstorm will affect city of Winchester...central Clarke...southeastern Frederick...southwestern Jefferson and south central Berkeley counties... At 240 PM EDT...a strong thunderstorm was near Winchester...moving southeast at 10 mph. Winds in excess of 40 mph and pea size hail are possible with this storm. Locations impacted include... Winchester...Millwood Pike...Berryville...Boyce...Albin...Ridgeway... Brucetown...White Post...Briggs...Cedar Hill...Wadesville... Stringtown...Gaylord...Cedar Grove...Greenwood...Clear Brook... Armel...Wickliffe...Stephenson and Summit Point. Lat...Lon 3917 7786 3903 7813 3904 7815 3925 7829 3936 7810 time...Mot...loc 1840z 324deg 11kt 3925 7815

×

10-Day Weather Forecast

×

Almanac

Astronomy

Sep. 02, 2015 Rise Set
Actual Time
Civil Twilight
Nautical Twilight
Astronomical Twilight
Moon
Length of Visible Light
Length of Day
Tomorrow will be .
, % of the Moon is Illuminated

Today's Extremes

State Highs State Lows

Community

WunderPhotos

Upload Photos

1,851,799 photos uploaded!

WunderBlogs® & News

Nearby

Air Quality

  Air Quality AQ Index Pollutant
Not available.

Snow Depth

Station Depth Elevation

Earthquake Activity

City Distance Mag. Time & Date
Minimum magnitude displayed is 2.5.

Coastal Water Temperatures

Place Temperature

Stations

Nearby Weather Stations

Station Location Temp. Windchill Dew Point Humidity Wind Precip. Elev Updated Type